Location: Nelson
(41.2830°S, 173.2830°E)
Time: 06:17:11
(UTC+13:00)

Meteor 1-26 Rocket - Visible Passes

Search period start: 19 October 2019 00:00
Search period end: 29 October 2019 00:00
Orbit: 818 x 917 km, 81.3° (Epoch: 18 October)

Date Brightness Start Highest point End Pass type
(mag) Time Alt. Az. Time Alt. Az. Time Alt. Az.
19 Oct 6.7 00:52:53 10° SW 00:54:07 14° WSW 00:54:07 14° WSW visible
19 Oct 4.9 23:01:06 10° S 23:05:05 45° SSE 23:05:05 45° SSE visible
20 Oct 6.6 00:45:59 10° SW 00:47:28 14° WSW 00:47:28 14° WSW visible
20 Oct 4.7 22:54:09 10° S 22:58:27 50° SSE 22:58:27 50° SSE visible
21 Oct 6.6 00:39:05 10° SW 00:40:51 14° WSW 00:40:51 14° WSW visible
21 Oct 4.5 22:47:13 10° S 22:51:51 56° SE 22:51:51 56° SE visible
22 Oct 6.5 00:32:11 10° SW 00:34:14 15° WSW 00:34:14 15° WSW visible
22 Oct 4.3 22:40:15 10° S 22:45:15 62° SE 22:45:15 62° SE visible
23 Oct 6.5 00:25:18 10° SW 00:27:39 15° WSW 00:27:39 15° WSW visible
23 Oct 4.2 22:33:19 10° S 22:38:41 66° ESE 22:38:41 66° ESE visible
24 Oct 6.5 00:18:24 10° SW 00:21:05 15° W 00:21:05 15° W visible
24 Oct 4.1 22:26:22 10° S 22:31:54 68° E 22:32:08 67° E visible
25 Oct 6.5 00:11:31 10° SW 00:14:31 15° W 00:14:32 15° W visible
25 Oct 4.1 22:19:24 10° S 22:24:58 69° E 22:25:37 62° ENE visible
26 Oct 6.5 00:04:37 10° SW 00:07:34 15° W 00:08:01 15° W visible
26 Oct 4.1 22:12:28 10° S 22:18:01 70° ESE 22:19:08 55° NE visible
26 Oct 6.5 23:57:44 10° SW 00:00:37 14° W 00:01:32 14° W visible
27 Oct 4.1 22:05:31 10° S 22:11:05 71° ESE 22:12:40 47° NNE visible
27 Oct 6.5 23:50:51 10° SW 23:53:40 14° W 23:55:04 13° W visible
28 Oct 4.1 21:58:35 10° S 22:04:10 73° E 22:06:14 40° NNE visible
28 Oct 6.6 23:43:57 10° SW 23:46:44 14° W 23:48:38 12° WNW visible
